Terminal Aerodrome Forecast
Issued by NWS

Home | Current Version | Previous Version | Text Only | Print | Product List | Glossary On
Versions: 1 2 3 4 5 6 7 8 9 10 11 12 13 14 15 16 17 18 19 20 21 22 23 24 25 26 27 28 29 30 31 32 33 34 35 36 37 38 39 40 41 42 43 44 45 46 47 48 49 50
000
FTUS42 KMFL 261132
TAFTMB
TAF
KTMB 261132Z 2612/2712 21007KT P6SM VCTS SCT030CB BKN050
     FM261500 27013KT P6SM VCSH SCT015 BKN030
     FM261900 32013KT P6SM VCSH FEW020 SCT050 BKN120
     FM270200 32007KT P6SM FEW020 SCT250=

USA.gov is the U.S. government's official web portal to all federal, state and local government web resources and services.